Погода Кемерово

Погода Кемерово : погода сейчас, прогноз погоды и архив. Всё, что Вы хотите узнать о погоде Кемерово!

Поиск расширенной информации на нашем сайте:

Другие новости

Новости СМИ2

Главная страница сайта

Новости сайта

03.07.2017

Напоминаем, что на нашем специализированном сайте Метеоцентр.Азия вы можете получить высокодетализированные автоматические прогнозы погоды по пунктам России, СНГ и мира в авиационном формате (включающие направление и скорость ветра, видимость, явления погоды, количество и форму облачности, нижнюю и верхнюю границу облачности).


Погода Кемерово - сегодня

Время (UTC), дата Ветер
(°,м/с) 
Видим.   Явления Облачность Т
(°С)
Тd
(°С)
f(%) Тe
(°С)
Pmin
(гПа)
dP
(гПа)
Po
(мм)
O2
(г/м3)
Тmin Tmax R s Состояние
почвы
15 20.02.18 220 (ЮЗ) 20000 м    10/0 средняя, верхняя 
[Ac As|Ci sp]
-7.4 -11.6 72 -9  1032.8  -1  760  316           
18 20.02.18 220 (ЮЗ) 4000 м  слаб. ливневой снег  10/10 600 м кучево-дожд. 
[Cb cap]
-7.8 -9.6 87 -9  1031.6  -1.2  759  316           
21 20.02.18 210 (ЮЗ) 4000 м  слаб. ливневой снег  10/8 600 м кучево-дожд., верхняя 
[Cb cap|Ci fib]
-8.1 -10.2 85 -10  1030.6  -1  758  316           
00 21.02.18 170 (Ю) 4000 м  слаб. ливневой снег  10/10 600 м кучево-дожд. 
[Cb cap]
-9 -11.5 82 -9  1030.1  -0.6  758  317  -9.4    0.5  52  равномерный
сухой снег
100% 
06 21.02.18 150 (ЮВ) 20000 м  {ливн. осадки}  8/6 600 м верхняя 
[Sc|Ci fib]
-6.4 -11.5 67 -8  1028.6  -0.8  757  313           
09 21.02.18 160 (Ю) 20000 м    8/8 600 м верхняя 
[Sc|Ci fib]
-5.5 -10.7 67 -7  1027.3  -1.2  756  312           
12 21.02.18 тихо ()   20000 м    6/3 600 м верхняя 
[Sc|Ci fib]
-11.3 -13.6 83 -11  1026.3  -1.4  755  319    -5.3  0.2     
15 21.02.18 тихо ()   20000 м    1/0 верхняя 
[Ci fib]
-13.9 -15.2 90 -14  1024.8  -1.7  754  321           
18 21.02.18 тихо ()   10 км    6/0 верхняя 
[Ci fib]
-16 -17.6 87 -16  1023  -1.9  752  323           
21 21.02.18 тихо ()   4000 м  дым  10/0 верхняя 
[Ci fib]
-15.3 -17 87 -15  1021.5  -1.4  751  322           
00 22.02.18 080 (В) 4000 м  дым  10/0 верхняя 
[Ci fib]
-14.4 -16 88 -14  1019.4  -2  750  320  -16.7      52  равномерный
сухой снег
100% 
03 22.02.18 080 (В) 4000 м  дым  10/0 средняя 
[As trans]
-13.1 -14.7 88 -13  1018.6  -0.7  749  318           
06 22.02.18 150 (ЮВ) 4000 м  слаб. ливневой снег  10/6 600 м кучево-дожд., средняя 
[Cb cap|As trans]
-8.4 -11.4 79 -10  1016.7  -1.5  748  312           
09 22.02.18 160 (Ю) 1000 м  ливневой снег  10/10 600 м кучево-дожд. 
[Cb cap]
-4.2 -5.5 91 -5  1015.1  -1.2  747  306           
12 22.02.18 250 (З) 4000 м  слаб. ливневой снег  10/10 300 м кучево-дожд. 
[Cb cap]
-3.1 -4 93 -6  1015.4  0.3  747  305    -2.7     
21 22.02.18 220 (ЮЗ) 4000 м  слаб. ливневой снег  10/10 600 м кучево-дожд. 
[Cb cap]
-10.8 -13.9 78 -14  1024.5  2.3  754  317           
00 23.02.18 170 (Ю) 20000 м  в посл. час ливневой снег  6/3 600 м кучево-дожд., верхняя 
[Cb cap|Ci fib]
-12.8 -15.6 80 -15  1025.5  0.9  754  320  -12.8    0.0  54  равномерный
сухой снег
100% 
03 23.02.18 150 (ЮВ) 20000 м    10/0 средняя, верхняя 
[Ac trans|Ci sp]
-14.6 -17 82 -18  1025.8  0.1  754  323  -16.4         
06 23.02.18 160 (Ю) 4000 м  слаб. ливневой снег  10/0 кучево-дожд. 
[Cb cap]
-11.4 -14.2 80 -15  1025  -0.5  754  318           
09 23.02.18 170 (Ю) 4000 м  слаб. ливневой снег  10/10 600 м кучево-дожд. 
[Cb cap]
-8.3 -11.2 80 -12  1022.9  -1.8  753  314           
12 23.02.18 190 (Ю) 4000 м  слаб. ливневой снег  10/10 600 м кучево-дожд. 
[Cb cap]
-7.8 -10.3 82 -11  1021.8  -1  752  313    -7.6  0.3     
15 23.02.18 160 (Ю) 4000 м  слаб. ливневой снег  10/8 600 м кучево-дожд., верхняя 
[Cb cap|Ci fib]
-9.9 -11.6 87 -12  1022.3  0.3  752  316           
18 23.02.18 тихо ()   20000 м  {ливн. осадки}  10/0 средняя, верхняя 
[Ac As|Ci fib]
-13.2 -15.5 83 -13  1022.9  0.3  752  320           
21 23.02.18 тихо ()   20000 м    10/0 средняя, верхняя 
[Ac As|Ci fib]
-12.8 -14.7 86 -13  1022.9  0.1  752  319           
00 24.02.18 тихо ()   4000 м  слаб. ливневой снег  10/4 600 м кучево-дожд., средняя, верхняя 
[Cb cap|Ac As|Ci fib]
-15 -16.5 88 -15  1023.1  752  322  -15.6    0.2  53  равномерный
сухой снег
100% 
Время (UTC), дата Ветер
(°,м/с) 
Видим.   Явления Облачность Т
(°С)
Тd
(°С)
f(%) Тe
(°С)
Pmin
(гПа)
dP
(гПа)
Po
(мм)
O2
(г/м3)
Тmin Tmax R s Состояние
почвы

Для получения пояснительной информации подведите курсор к названию столбца.

ПОГОДА Кемерово - архив

Всё, что Вы хотите узнать о погоде Кемерово - удобно и подробно!

Выберите нужную дату (начиная с 1 января 2015* года) и нажмите кнопку "Найти".
Будут отображены архивные сводки погоды по пункту Кемерово, начиная с указанной даты.


Отображать данные в формате CSV (для использования в таблицах Excel)


Внимание! Наш архив погоды предназначен исключительно для личного некоммерческого использования в познавательных целях. Если Вам необходимы официальные справки о состоянии погоды (для производственных, юридических, коммерческих и т.п. целей), обращайтесь в органы Росгидромета.

*Примечание: данная дата относится к архиву по метеостанциям СССР (Россия, СНГ, Балтия).
Архив по метеостанциям Зарубежной Европы и Азии (кроме Китая) хранится 10 дней, по другим регионам земного шара (Китай, Африка, Америка, Австралия, Океания) - 1 день.

Кемерово - район местоположения метеостанции


Название, широта, долгота, высота метеостанции:
Кемерово (город) 55.2°ш. 86.1°д. 260 м над ур. моря [Российская Федерация]

Дополнительная информация

В oтличие oт бoльшинства пoгoдных сайтoв мы публикуем пoдрoбную метеoинфoрмацию в детальнoм прoфессиoнальнoм фoрмате.

Характеристики температуры и влажнoсти вoздуха измеряются на высoте 2 м в тени вдали oт зданий и деревьев.
Скoрoсть ветра измеряется на высoте 10 м (на урoвне рoста челoвека скoрoсть ветра ниже в 1.5-2 раза). Если метеoстанция нахoдится в гoрoде или в лесу, тo скoрoсть ветра занижена на 2-4 м/с пo сравнению с oткрытым местoм. Скoрoсть ветра над акватoриями крупных рек и oзёр, а также на вершинах хoлмoв на 2-5 м/с выше, чем в oбычных услoвиях.
Атмoсфернoе давление в разных тoчках местнoсти мoжет значительнo oтличаться oт давления на метеoстанции, в зависимoсти oт услoвий рельефа (при пoдъёме на 10 м давление пoнижается примернo на 1 мм рт.ст.).